Time,TemperatureF,DewpointF,PressureIn,WindDirection,WindDirectionDegrees,WindSpeedMPH,WindSpeedGustMPH,Humidity,HourlyPrecipIn,Conditions,Clouds,dailyrainin,SoftwareType,DateUTC
2013-06-12 00:03:00,82.0,-99.9,30.04,SSE,155,3.0,6.0,-999,-99.99,,,-99.99,,2013-06-12 04:03:00,
2013-06-12 00:13:00,82.0,-99.9,30.04,SSE,162,4.0,7.0,-999,-99.99,,,-99.99,,2013-06-12 04:13:00,
2013-06-12 00:23:00,82.0,-99.9,30.03,SSE,162,4.0,8.0,-999,-99.99,,,-99.99,,2013-06-12 04:23:00,
2013-06-12 00:34:00,82.0,-99.9,30.03,SSE,149,6.0,9.0,-999,-99.99,,,-99.99,,2013-06-12 04:34:00,
2013-06-12 00:43:00,82.0,-99.9,30.04,SE,145,4.0,5.0,-999,-99.99,,,-99.99,,2013-06-12 04:43:00,
2013-06-12 00:53:00,82.0,-99.9,30.03,SSE,158,4.0,7.0,-999,-99.99,,,-99.99,,2013-06-12 04:53:00,
2013-06-12 01:03:00,82.0,-99.9,30.03,SSE,164,4.0,8.0,-999,-99.99,,,-99.99,,2013-06-12 05:03:00,
2013-06-12 01:12:00,82.0,-99.9,30.03,SSE,160,4.0,7.0,-999,-99.99,,,-99.99,,2013-06-12 05:12:00,
2013-06-12 01:22:00,82.0,-99.9,30.03,SSE,153,6.0,9.0,-999,-99.99,,,-99.99,,2013-06-12 05:22:00,
2013-06-12 01:32:00,82.0,-99.9,30.03,SSE,160,4.0,9.0,-999,-99.99,,,-99.99,,2013-06-12 05:32:00,
2013-06-12 01:43:00,82.0,-99.9,30.02,SSE,166,6.0,11.0,-999,-99.99,,,-99.99,,2013-06-12 05:43:00,
2013-06-12 01:52:00,82.0,-99.9,30.02,SSE,161,7.0,13.0,-999,-99.99,,,-99.99,,2013-06-12 05:52:00,
2013-06-12 02:02:00,82.0,-99.9,30.02,SSE,155,8.0,13.0,-999,-99.99,,,-99.99,,2013-06-12 06:02:00,
2013-06-12 02:12:00,82.0,-99.9,30.02,SSE,168,5.0,10.0,-999,-99.99,,,-99.99,,2013-06-12 06:12:00,
2013-06-12 02:22:00,82.0,-99.9,30.01,SSE,162,6.0,10.0,-999,-99.99,,,-99.99,,2013-06-12 06:22:00,
2013-06-12 02:32:00,81.0,-99.9,30.01,SSE,161,5.0,11.0,-999,-99.99,,,-99.99,,2013-06-12 06:32:00,
2013-06-12 02:42:00,81.0,-99.9,30.02,SSE,166,5.0,12.0,-999,-99.99,,,-99.99,,2013-06-12 06:42:00,
2013-06-12 02:52:00,81.0,-99.9,30.02,South,170,5.0,9.0,-999,-99.99,,,-99.99,,2013-06-12 06:52:00,
2013-06-12 03:02:00,82.0,-99.9,30.02,SSE,167,4.0,9.0,-999,-99.99,,,-99.99,,2013-06-12 07:02:00,
2013-06-12 03:12:00,81.0,-99.9,30.03,SSE,159,3.0,6.0,-999,-99.99,,,-99.99,,2013-06-12 07:12:00,
2013-06-12 03:22:00,82.0,-99.9,30.03,SSE,158,4.0,6.0,-999,-99.99,,,-99.99,,2013-06-12 07:22:00,
2013-06-12 03:33:00,81.0,-99.9,30.02,South,169,3.0,8.0,-999,-99.99,,,-99.99,,2013-06-12 07:33:00,
2013-06-12 03:43:00,81.0,-99.9,30.01,South,172,4.0,7.0,-999,-99.99,,,-99.99,,2013-06-12 07:43:00,
2013-06-12 03:53:00,81.0,-99.9,30.02,SSE,165,3.0,7.0,-999,-99.99,,,-99.99,,2013-06-12 07:53:00,
2013-06-12 04:02:00,81.0,-99.9,30.02,South,172,3.0,6.0,-999,-99.99,,,-99.99,,2013-06-12 08:02:00,
2013-06-12 04:12:00,81.0,-99.9,30.02,SSE,161,3.0,6.0,-999,-99.99,,,-99.99,,2013-06-12 08:12:00,
2013-06-12 04:22:00,81.0,-99.9,30.01,SSE,168,3.0,5.0,-999,-99.99,,,-99.99,,2013-06-12 08:22:00,
2013-06-12 04:33:00,81.0,-99.9,30.02,South,173,2.0,5.0,-999,-99.99,,,-99.99,,2013-06-12 08:33:00,
2013-06-12 04:43:00,81.0,-99.9,30.02,South,170,0.0,3.0,-999,-99.99,,,-99.99,,2013-06-12 08:43:00,
2013-06-12 04:53:00,81.0,-99.9,30.02,SSE,147,4.0,6.0,-999,-99.99,,,-99.99,,2013-06-12 08:53:00,
2013-06-12 05:01:00,81.0,-99.9,30.02,SSE,147,4.0,6.0,-999,-99.99,,,-99.99,,2013-06-12 09:01:00,
2013-06-12 05:12:00,80.0,-99.9,30.02,South,189,10.0,16.0,-999,-99.99,,,-99.99,,2013-06-12 09:12:00,
2013-06-12 05:22:00,79.0,-99.9,30.01,SSW,197,9.0,13.0,-999,-99.99,,,-99.99,,2013-06-12 09:22:00,
2013-06-12 05:33:00,78.0,-99.9,30.01,SSW,202,6.0,12.0,-999,-99.99,,,-99.99,,2013-06-12 09:33:00,
2013-06-12 05:43:00,78.0,-99.9,30.01,South,191,7.0,12.0,-999,-99.99,,,-99.99,,2013-06-12 09:43:00,
2013-06-12 05:53:00,79.0,-99.9,30.01,SSW,203,3.0,9.0,-999,-99.99,,,-99.99,,2013-06-12 09:53:00,
2013-06-12 06:02:00,79.0,-99.9,30.02,South,179,3.0,6.0,-999,-99.99,,,-99.99,,2013-06-12 10:02:00,
2013-06-12 06:12:00,79.0,-99.9,30.02,South,179,3.0,6.0,-999,-99.99,,,-99.99,,2013-06-12 10:12:00,
2013-06-12 06:23:00,79.0,-99.9,30.02,South,184,4.0,6.0,-999,-99.99,,,-99.99,,2013-06-12 10:23:00,
2013-06-12 06:33:00,79.0,-99.9,30.02,South,189,3.0,4.0,-999,-99.99,,,-99.99,,2013-06-12 10:33:00,
2013-06-12 06:43:00,80.0,-99.9,30.02,South,169,2.0,4.0,-999,-99.99,,,-99.99,,2013-06-12 10:43:00,
2013-06-12 06:53:00,80.0,-99.9,30.02,South,188,3.0,6.0,-999,-99.99,,,-99.99,,2013-06-12 10:53:00,
2013-06-12 07:02:00,80.0,-99.9,30.03,SSW,197,2.0,4.0,-999,-99.99,,,-99.99,,2013-06-12 11:02:00,
2013-06-12 07:12:00,80.0,-99.9,30.03,South,181,2.0,3.0,-999,-99.99,,,-99.99,,2013-06-12 11:12:00,
2013-06-12 07:24:00,80.0,-99.9,30.04,SSW,195,2.0,3.0,-999,-99.99,,,-99.99,,2013-06-12 11:24:00,
2013-06-12 07:34:00,80.0,-99.9,30.04,WSW,251,1.0,2.0,-999,-99.99,,,-99.99,,2013-06-12 11:34:00,
2013-06-12 07:43:00,80.0,-99.9,30.04,WSW,240,2.0,3.0,-999,-99.99,,,-99.99,,2013-06-12 11:43:00,
2013-06-12 07:53:00,81.0,-99.9,30.04,WSW,242,2.0,3.0,-999,-99.99,,,-99.99,,2013-06-12 11:53:00,
2013-06-12 08:02:00,81.0,-99.9,30.04,WSW,242,2.0,3.0,-999,-99.99,,,-99.99,,2013-06-12 12:02:00,
2013-06-12 08:11:00,81.0,-99.9,30.05,West,261,1.0,3.0,-999,-99.99,,,-99.99,,2013-06-12 12:11:00,
2013-06-12 08:23:00,81.0,-99.9,30.05,SW,225,2.0,4.0,-999,-99.99,,,-99.99,,2013-06-12 12:23:00,
2013-06-12 08:33:00,82.0,-99.9,30.05,SW,217,1.0,3.0,-999,-99.99,,,-99.99,,2013-06-12 12:33:00,
2013-06-12 08:43:00,82.0,-99.9,30.05,SSW,199,2.0,5.0,-999,-99.99,,,-99.99,,2013-06-12 12:43:00,
2013-06-12 08:53:00,83.0,-99.9,30.05,SSW,211,1.0,4.0,-999,-99.99,,,-99.99,,2013-06-12 12:53:00,
2013-06-12 09:02:00,83.0,-99.9,30.05,SSW,211,1.0,4.0,-999,-99.99,,,-99.99,,2013-06-12 13:02:00,
2013-06-12 09:12:00,86.0,-99.9,30.05,SSW,207,2.0,6.0,-999,-99.99,,,-99.99,,2013-06-12 13:12:00,
2013-06-12 09:53:00,89.0,-99.9,30.06,WSW,246,2.0,5.0,-999,-99.99,,,-99.99,,2013-06-12 13:53:00,
2013-06-12 10:24:00,89.0,-99.9,30.06,SW,236,2.0,6.0,-999,-99.99,,,-99.99,,2013-06-12 14:24:00,
2013-06-12 10:33:00,88.0,-99.9,30.06,SSW,200,3.0,6.0,-999,-99.99,,,-99.99,,2013-06-12 14:33:00,
2013-06-12 10:43:00,89.0,-99.9,30.06,SW,218,3.0,6.0,-999,-99.99,,,-99.99,,2013-06-12 14:43:00,
2013-06-12 10:53:00,88.0,-99.9,30.06,SSW,199,3.0,8.0,-999,-99.99,,,-99.99,,2013-06-12 14:53:00,
2013-06-12 11:02:00,88.0,-99.9,30.06,SW,235,2.0,7.0,-999,-99.99,,,-99.99,,2013-06-12 15:02:00,
2013-06-12 11:12:00,88.0,-99.9,30.07,West,259,4.0,6.0,-999,-99.99,,,-99.99,,2013-06-12 15:12:00,
2013-06-12 11:23:00,86.0,-99.9,30.07,South,183,4.0,6.0,-999,-99.99,,,-99.99,,2013-06-12 15:23:00,
2013-06-12 11:33:00,86.0,-99.9,30.07,SSW,201,3.0,6.0,-999,-99.99,,,-99.99,,2013-06-12 15:33:00,
2013-06-12 11:43:00,87.0,-99.9,30.07,South,184,4.0,8.0,-999,-99.99,,,-99.99,,2013-06-12 15:43:00,
2013-06-12 11:52:00,88.0,-99.9,30.08,South,188,5.0,7.0,-999,-99.99,,,-99.99,,2013-06-12 15:52:00,
2013-06-12 12:02:00,88.0,-99.9,30.08,South,188,5.0,7.0,-999,-99.99,,,-99.99,,2013-06-12 16:02:00,
2013-06-12 12:12:00,88.0,-99.9,30.08,South,183,4.0,9.0,-999,-99.99,,,-99.99,,2013-06-12 16:12:00,
2013-06-12 12:22:00,87.0,-99.9,30.08,SSW,197,4.0,9.0,-999,-99.99,,,-99.99,,2013-06-12 16:22:00,
2013-06-12 12:33:00,87.0,-99.9,30.07,South,183,5.0,12.0,-999,-99.99,,,-99.99,,2013-06-12 16:33:00,
2013-06-12 12:43:00,86.0,-99.9,30.07,South,173,5.0,9.0,-999,-99.99,,,-99.99,,2013-06-12 16:43:00,
2013-06-12 12:53:00,86.0,-99.9,30.06,South,173,5.0,9.0,-999,-99.99,,,-99.99,,2013-06-12 16:53:00,
2013-06-12 13:02:00,86.0,-99.9,30.06,South,173,5.0,9.0,-999,-99.99,,,-99.99,,2013-06-12 17:02:00,
2013-06-12 13:12:00,86.0,-99.9,30.06,South,189,5.0,7.0,-999,-99.99,,,-99.99,,2013-06-12 17:12:00,
2013-06-12 13:23:00,86.0,-99.9,30.06,South,182,4.0,10.0,-999,-99.99,,,-99.99,,2013-06-12 17:23:00,
2013-06-12 13:33:00,86.0,-99.9,30.06,South,170,7.0,11.0,-999,-99.99,,,-99.99,,2013-06-12 17:33:00,
2013-06-12 13:43:00,86.0,-99.9,30.06,SSE,158,5.0,9.0,-999,-99.99,,,-99.99,,2013-06-12 17:43:00,
2013-06-12 13:52:00,85.0,-99.9,30.05,SSE,154,7.0,10.0,-999,-99.99,,,-99.99,,2013-06-12 17:52:00,
2013-06-12 14:02:00,85.0,-99.9,30.05,SSE,154,7.0,10.0,-999,-99.99,,,-99.99,,2013-06-12 18:02:00,
2013-06-12 14:12:00,87.0,-99.9,30.04,South,171,4.0,13.0,-999,-99.99,,,-99.99,,2013-06-12 18:12:00,
2013-06-12 14:22:00,86.0,-99.9,30.04,South,175,6.0,12.0,-999,-99.99,,,-99.99,,2013-06-12 18:22:00,
2013-06-12 14:33:00,86.0,-99.9,30.05,South,170,4.0,11.0,-999,-99.99,,,-99.99,,2013-06-12 18:33:00,
2013-06-12 14:43:00,86.0,-99.9,30.06,South,174,5.0,8.0,-999,-99.99,,,-99.99,,2013-06-12 18:43:00,
2013-06-12 14:53:00,87.0,-99.9,30.05,South,189,4.0,7.0,-999,-99.99,,,-99.99,,2013-06-12 18:53:00,
2013-06-12 15:02:00,87.0,-99.9,30.05,South,189,4.0,7.0,-999,-99.99,,,-99.99,,2013-06-12 19:02:00,
2013-06-12 15:11:00,86.0,-99.9,30.05,South,176,5.0,9.0,-999,-99.99,,,-99.99,,2013-06-12 19:11:00,
2013-06-12 15:22:00,84.0,-99.9,30.05,SE,142,5.0,10.0,-999,-99.99,,,-99.99,,2013-06-12 19:22:00,
2013-06-12 15:33:00,87.0,-99.9,30.06,South,174,6.0,9.0,-999,-99.99,,,-99.99,,2013-06-12 19:33:00,
2013-06-12 15:43:00,86.0,-99.9,30.06,South,171,4.0,8.0,-999,-99.99,,,-99.99,,2013-06-12 19:43:00,
2013-06-12 15:52:00,85.0,-99.9,30.05,South,175,6.0,8.0,-999,-99.99,,,-99.99,,2013-06-12 19:52:00,
2013-06-12 16:02:00,85.0,-99.9,30.05,South,175,6.0,8.0,-999,-99.99,,,-99.99,,2013-06-12 20:02:00,
2013-06-12 16:12:00,84.0,-99.9,30.05,SSE,154,3.0,7.0,-999,-99.99,,,-99.99,,2013-06-12 20:12:00,
2013-06-12 16:22:00,85.0,-99.9,30.04,South,170,2.0,5.0,-999,-99.99,,,-99.99,,2013-06-12 20:22:00,
2013-06-12 16:33:00,85.0,-99.9,30.05,South,178,2.0,4.0,-999,-99.99,,,-99.99,,2013-06-12 20:33:00,
2013-06-12 16:43:00,85.0,-99.9,30.05,South,178,2.0,4.0,-999,-99.99,,,-99.99,,2013-06-12 20:43:00,
2013-06-12 16:54:00,85.0,-99.9,30.05,South,178,2.0,4.0,-999,-99.99,,,-99.99,,2013-06-12 20:54:00,
2013-06-12 17:02:00,85.0,-99.9,30.05,South,178,2.0,4.0,-999,-99.99,,,-99.99,,2013-06-12 21:02:00,
2013-06-12 17:12:00,77.0,-99.9,30.06,NNW,335,17.0,28.0,-999,-99.99,,,-99.99,,2013-06-12 21:12:00,
2013-06-12 17:22:00,78.0,-99.9,30.05,NE,34,16.0,21.0,-999,-99.99,,,-99.99,,2013-06-12 21:22:00,
2013-06-12 17:33:00,78.0,-99.9,30.05,NNE,26,12.0,19.0,-999,-99.99,,,-99.99,,2013-06-12 21:33:00,
2013-06-12 17:43:00,76.0,-99.9,30.04,SE,137,4.0,5.0,-999,-99.99,,,-99.99,,2013-06-12 21:43:00,
2013-06-12 17:53:00,76.0,-99.9,30.01,North,11,1.0,1.0,-999,-99.99,,,-99.99,,2013-06-12 21:53:00,
2013-06-12 18:01:00,76.0,-99.9,30.01,North,11,1.0,1.0,-999,-99.99,,,-99.99,,2013-06-12 22:01:00,
2013-06-12 18:11:00,77.0,-99.9,29.99,ESE,116,5.0,6.0,-999,-99.99,,,-99.99,,2013-06-12 22:11:00,
2013-06-12 18:22:00,78.0,-99.9,29.99,ESE,111,5.0,8.0,-999,-99.99,,,-99.99,,2013-06-12 22:22:00,
2013-06-12 18:33:00,78.0,-99.9,29.99,SE,135,6.0,9.0,-999,-99.99,,,-99.99,,2013-06-12 22:33:00,
2013-06-12 18:43:00,78.0,-99.9,29.99,ESE,110,3.0,6.0,-999,-99.99,,,-99.99,,2013-06-12 22:43:00,
2013-06-12 18:53:00,79.0,-99.9,29.99,SE,132,5.0,8.0,-999,-99.99,,,-99.99,,2013-06-12 22:53:00,
2013-06-12 19:02:00,79.0,-99.9,29.98,SE,146,6.0,9.0,-999,-99.99,,,-99.99,,2013-06-12 23:02:00,
2013-06-12 19:12:00,79.0,-99.9,29.99,SE,129,3.0,6.0,-999,-99.99,,,-99.99,,2013-06-12 23:12:00,
2013-06-12 19:22:00,80.0,-99.9,30.00,SE,142,3.0,6.0,-999,-99.99,,,-99.99,,2013-06-12 23:22:00,
2013-06-12 19:32:00,80.0,-99.9,30.01,East,94,3.0,4.0,-999,-99.99,,,-99.99,,2013-06-12 23:32:00,
2013-06-12 19:43:00,80.0,-99.9,30.02,East,93,2.0,3.0,-999,-99.99,,,-99.99,,2013-06-12 23:43:00,
2013-06-12 19:53:00,80.0,-99.9,30.02,East,101,2.0,3.0,-999,-99.99,,,-99.99,,2013-06-12 23:53:00,
2013-06-12 20:02:00,80.0,-99.9,30.02,ESE,114,2.0,4.0,-999,-99.99,,,-99.99,,2013-06-13 00:02:00,
2013-06-12 20:12:00,81.0,-99.9,30.04,ESE,113,2.0,5.0,-999,-99.99,,,-99.99,,2013-06-13 00:12:00,
2013-06-12 20:22:00,81.0,-99.9,30.04,East,88,3.0,5.0,-999,-99.99,,,-99.99,,2013-06-13 00:22:00,
2013-06-12 20:33:00,81.0,-99.9,30.05,ENE,74,5.0,7.0,-999,-99.99,,,-99.99,,2013-06-13 00:33:00,
2013-06-12 20:43:00,81.0,-99.9,30.06,ENE,67,9.0,12.0,-999,-99.99,,,-99.99,,2013-06-13 00:43:00,
2013-06-12 20:52:00,82.0,-99.9,30.05,ENE,69,8.0,11.0,-999,-99.99,,,-99.99,,2013-06-13 00:52:00,
2013-06-12 21:01:00,81.0,-99.9,30.05,East,90,6.0,10.0,-999,-99.99,,,-99.99,,2013-06-13 01:01:00,
2013-06-12 21:12:00,81.0,-99.9,30.05,ENE,71,8.0,9.0,-999,-99.99,,,-99.99,,2013-06-13 01:12:00,
2013-06-12 21:22:00,81.0,-99.9,30.05,ENE,63,8.0,13.0,-999,-99.99,,,-99.99,,2013-06-13 01:22:00,
2013-06-12 21:33:00,81.0,-99.9,30.05,ENE,63,8.0,13.0,-999,-99.99,,,-99.99,,2013-06-13 01:33:00,
2013-06-12 21:43:00,80.0,-99.9,30.05,SSW,194,1.0,3.0,-999,-99.99,,,-99.99,,2013-06-13 01:43:00,
2013-06-12 21:53:00,80.0,-99.9,30.06,ENE,78,4.0,6.0,-999,-99.99,,,-99.99,,2013-06-13 01:53:00,
2013-06-12 22:02:00,80.0,-99.9,30.06,ENE,78,4.0,6.0,-999,-99.99,,,-99.99,,2013-06-13 02:02:00,
2013-06-12 22:12:00,80.0,-99.9,30.05,ESE,120,4.0,11.0,-999,-99.99,,,-99.99,,2013-06-13 02:12:00,
2013-06-12 22:22:00,80.0,-99.9,30.05,East,80,4.0,5.0,-999,-99.99,,,-99.99,,2013-06-13 02:22:00,
2013-06-12 22:33:00,79.0,-99.9,30.05,East,92,2.0,5.0,-999,-99.99,,,-99.99,,2013-06-13 02:33:00,
2013-06-12 22:43:00,79.0,-99.9,30.05,East,92,2.0,5.0,-999,-99.99,,,-99.99,,2013-06-13 02:43:00,
2013-06-12 22:52:00,79.0,-99.9,30.05,ESE,104,3.0,4.0,-999,-99.99,,,-99.99,,2013-06-13 02:52:00,
2013-06-12 23:02:00,79.0,-99.9,30.05,ESE,109,3.0,5.0,-999,-99.99,,,-99.99,,2013-06-13 03:02:00,
2013-06-12 23:12:00,79.0,-99.9,30.05,ESE,109,3.0,5.0,-999,-99.99,,,-99.99,,2013-06-13 03:12:00,
2013-06-12 23:22:00,80.0,-99.9,30.06,East,85,2.0,4.0,-999,-99.99,,,-99.99,,2013-06-13 03:22:00,
2013-06-12 23:33:00,80.0,-99.9,30.06,South,177,4.0,5.0,-999,-99.99,,,-99.99,,2013-06-13 03:33:00,
2013-06-12 23:43:00,80.0,-99.9,30.05,SE,140,5.0,8.0,-999,-99.99,,,-99.99,,2013-06-13 03:43:00,
2013-06-12 23:52:00,80.0,-99.9,30.05,ESE,121,3.0,5.0,-999,-99.99,,,-99.99,,2013-06-13 03:52:00,